Showing default

HULIANWANG DIGUI-85, 65820

Orbit data source: Space-Track

HULIANWANG DIGUI-85, 65820 is a payload satellite owned by Zhongguo Xingwang (CN) in LEO that was launched on Sat, 27 Sep 2025 UTC via a CHANG ZHENG 6A launch vehicle from the Taiyaun Space Center, China (TSC). Payload-class satellites include a variety of spacecraft equipped with specific instruments for various scientific and technological missions. These include communications satellites like Starlink; space stations such as the ISS; scientific satellites like the Hubble; Earth observation satellites from companies like Planet Labs, Umbra, and HawkEye 360; GPS; miniature CubeSats for education and research; and military/defense satellites.

Loading next visibility...
Identifier
65820, 2025-220D
Orbit
LEO
Country
Flag of CNCN / PRC
Related business
Manufacturer
SECM
Mission
Operational Civil Communications
Bus & Motor
XINGWANG S, Unknown motor
Mass
~800 kg wet, ~800 kg dry
Launch date (UTC)
2025-09-27 (9 months ago)
Launch vehicle
CHANG ZHENG 6A
Launch site
Taiyaun Space Center, China (TSC)
Object type
Payload
Rocket body
Debris
Shape & HBR
Box + 2 Pan, 1.1 m
Radar Cross Section
5.935 m², Large (>1 m²)

Expand to show TLE details & history
Last TLE update: 11 hours ago

TLE from 11 hours ago
0 HULIANWANG DIGUI-85
1 65820U 25220D   26171.39019859  .00000034  00000-0  45645-4 0  9998
2 65820  86.4989  42.8155 0001395  95.3883 264.7410 13.24407562 35349
Epoch: 2026-06-20T09:21Z
TLE epoch observation values (Epoch: 2026-06-20T09:21:53.158Z)
Latitude
-0.00002°
Longitude
-6.2615°
Altitude
1,170.922 km
Speed
7.268 km/s
True Right ascension
02h 51m 15s
True Declination
0° 00' 00"
Sunlit
Object was in daylight at epoch
Visualization orbit readout
Latitude
Unknown
Longitude
Unknown
Altitude
Unknown
Speed
Unknown
Apparent Right ascension
Unknown
Apparent Declination
Unknown
Sunlit
N/A
Visualization observer readout
Local Sidereal Time
07:20:54
Azimuth
Unknown
Elevation
Unknown
Doppler factor
Unknown
Orbital elements
Apogee altitude
1,166.104 km
Perigee altitude
1,163.999 km
Semi-major axis
7,543.188 km
Eccentricity
0.00014
Inclination
86.4989°
RAAN
42.8155°
Arg. of periapsis
95.3883°
True anomaly
264.72508°
Mean anomaly
264.741°
Eccentric anomaly
264.73304°
Mean motion
3.31292 °/min
Orbital period
108.67 mins
BSTAR
0.000045645
Loading maneuver chart data...
Computing Atmospheric mass density...
Loading historical data...
Loading historical data...
Loading historical data...
Loading historical data...
Loading historical data...
Loading historical data...
Loading historical data...

Documentation

Showing up to 5 results
|